To NAV CANADA Home Page Login to a new session Search on AWWS site Feedback and Comments Disclaimer Vers la page française équivalente Tips FAQ What's new on the site To the Forecasts and Observations / NOTAM section To "File a Flight Plan" website Publications and other links Update of the User's profile FIC Telephone Numbers My Weather Data Folder Route Weather Data Regional Weather Data Local Weather Data To the Forecasts and Observations / NOTAM section
Request Generated 09/03/2015 at 19:06:56 UTC . Weather information available at that time is displayed.

METAR/TAF

BERENS RIVER/MB    

METAR CYBV 031900Z 18002KT 15SM OVC017 24/22 A2976 RMK SC8 WND ESTD
SLP077 DENSITY ALT 2100FT=
METAR CYBV 031800Z 14005KT 15SM OVC013 23/21 A2974 RMK SC8 WND ESTD
SLP073 DENSITY ALT 2000FT=
METAR CYBV 031700Z 18005KT 15SM OVC013 22/20 A2976 RMK SC8 WND ESTD
SLP080 DENSITY ALT 1800FT=

CYBV - No TAF is issued for this station

Your time UTC time
Weather data provided by Environment Canada and NAV CANADA